Location: Unspecified
(0.0000°N, 0.0000°E)
Time: 09:56:19
(UTC+00:00)

Explorer 11/Cluster Stage 4 - Pass Details

Date: 03 October 2020
Orbit: 467 x 1258 km, 28.8° (Epoch: 28 October)

Event Time Altitude Azimuth Distance (km) Brightness Sun altitude
Rises 16:40:44 0° 214° (SW) 2,872 10.1 17.0°
Reaches altitude 10° 16:44:08 10° 190° (S) 1,825 8.7 16.1°
Maximum altitude 16:46:26 14° 155° (SSE) 1,483 7.9 15.6°
Drops below altitude 10° 16:48:36 10° 121° (ESE) 1,682 7.9 15.0°
Sets 16:51:30 0° 94° (E) 2,503 8.5 14.3°
